Regional Weather Roundup
Issued by NWS

Home | Current Version | Previous Version | Graphics & Text | Print | Product List | Glossary On
Versions: 1 2 3 4 5 6 7 8 9 10 11 12 13 14 15 16 17 18 19 20 21 22 23 24 25 26 27 28 29 30 31 32 33 34 35 36 37 38 39 40 41 42 43 44 45 46 47 48 49 50
000
ASUS43 KLOT 092310
RWRIL

ILLINOIS REGIONAL WEATHER ROUNDUP
NATIONAL WEATHER SERVICE CHICAGO/ROMEOVILLE IL
600 PM CDT WED JUL 09 2014

NOTE: "FAIR" INDICATES FEW OR NO CLOUDS BELOW 12,000 FEET WITH NO
SIGNIFICANT WEATHER AND/OR OBSTRUCTIONS TO VISIBILITY.

* THESE STATIONS ARE NOT UNDER NWS QUALITY CONTROL. THEY ALSO MAY NOT
  REPORT WEATHER SUCH AS PRECIPITATION OR FOG.

ILZ001-002-007-009-015-016-024-100000-
NORTHWEST ILLINOIS

CITY           SKY/WX    TMP DP  RH WIND       PRES   REMARKS
MOLINE         PTSUNNY   77  54  44 NW9       30.01S
STERLING*      MOSUNNY   79  55  44 NW8       30.01S
SAVANNA*       MOSUNNY   77  53  43 N9        30.01S
$$

ILZ003-004-008-010-011-017-018-100000-
NORTH CENTRAL ILLINOIS

CITY           SKY/WX    TMP DP  RH WIND       PRES   REMARKS
ROCKFORD       MOSUNNY   75  52  44 N12       30.02R
FREEPORT*      MOSUNNY   73  53  49 NW9       30.04R
ROCHELLE*      SUNNY     75  52  44 N14       30.01S
DE KALB*       MOSUNNY   73  52  48 N10G17    30.01R
PERU*          MOSUNNY   78  55  44 NW10G17   30.01R
$$

ILZ005-006-012>014-019>023-100000-
NORTHEAST ILLINOIS

CITY           SKY/WX    TMP DP  RH WIND       PRES   REMARKS
CHICAGO-OHARE  MOSUNNY   78  47  33 NW12      29.98R
CHICAGO-MIDWAY MOSUNNY   79  55  43 N9        29.97R
AURORA         MOSUNNY   76  54  46 N14       30.00R
LANSING*       SUNNY     75  56  51 NE6       29.98R
JOLIET*        MOSUNNY   76  52  42 NW8       29.99S
WAUKEGAN       MOSUNNY   66  58  75 E6        29.99R
DUPAGE AIRPORT MOSUNNY   77  52  41 NW12      29.99R
KANKAKEE*      SUNNY     75  57  53 NW7       29.99R
WHEELING       MOSUNNY   78  51  38 N12G17    29.99R
MORRIS*        SUNNY     77  58  51 CALM      29.99R
ROMEOVILLE*    PTSUNNY   74  52  46 NW8       29.99R
NORTHERLY ISL    N/A     69  60  73 NE6         N/A
$$

LMZ740>746-100000-
SOUTHERN LAKE MICHIGAN

STATION/POSITION SKY/WX   TEMP    WIND        PRES    VSBY  WAVE
                          AIR SEA DIR/SP/G                  HT/PER
                          (F)     (DEG/KT/KT) (MB)    (MI)  (FT/S)
SOUTHERN BUOY              60 58   CALM  /  2 1016.0R         0
WAUKEGAN HARBOR            65     100/  8/  8 1016.6R
HARRISON CRIB              67      90/  8/  9   N/A
BURNHAM HARBOR             69      50/  5/  7   N/A
CALUMET HARBOR             69      50/  6/  8 1016.1R
MICHIGAN CITY              69      20/  7/  8   N/A
$$

ILZ025>027-034>036-040-047-049-050-058-095>099-100000-
WEST-CENTRAL ILLINOIS

CITY           SKY/WX    TMP DP  RH WIND       PRES   REMARKS
QUINCY         MOSUNNY   77  55  46 N9        30.03S
GALESBURG*     MOSUNNY   78  58  51 NW5       30.03S
MACOMB*        MOSUNNY   76  58  53 N7        30.05S
JACKSONVILLE*  MOSUNNY   77  59  54 NW7       30.03S
PITTSFIELD*    MOSUNNY   78  57  47 N8        30.04S
$$

ILZ028>032-037-038-041>044-048-051>054-059>061-100000-
CENTRAL ILLINOIS

CITY           SKY/WX    TMP DP  RH WIND       PRES   REMARKS
PONTIAC        SUNNY     79  57  47 NW7       29.99S HX  80
BLOOMINGTON    MOSUNNY   77  54  44 NW14      30.02R
DECATUR        MOSUNNY   79  54  41 NW13      30.00S
PEORIA         MOSUNNY   79  55  43 NW9       30.01R
LACON*         MOSUNNY   77  55  46 N6        30.00S
LINCOLN*       SUNNY     80  53  39 NW6       29.98S HX  80
SPRINGFIELD    MOSUNNY   79  59  50 NW7       30.01S HX  80
TAYLORVILLE    MOSUNNY   73  59  60 NW8       30.00F
$$

ILZ033-039-045-046-055>057-062-063-100000-
EAST-CENTRAL ILLINOIS

CITY           SKY/WX    TMP DP  RH WIND       PRES   REMARKS
CHAMPAIGN      SUNNY     74  59  59 NW8       30.00R
RANTOUL*       SUNNY     78  54  42 NW6       30.00S
MATTOON        SUNNY     79  57  46 NW13      29.98S HX  80
PARIS*         SUNNY     78  58  49 NW8       29.99F
$$

ILZ079-100>102-100000-
SOUTHWEST ILLINOIS

CITY           SKY/WX    TMP DP  RH WIND       PRES   REMARKS
ALTON          SUNNY     81  61  50 NW9       30.00S HX  81
BELLEVILLE     SUNNY     82  57  41 NW13      29.98S HX  82
CAHOKIA*       MOSUNNY   84  56  38 N16       29.99R HX  83
SPARTA*        MOSUNNY   81  61  50 NW7       29.99F HX  81
$$

ILZ064>066-069>071-074>076-080>082-084>086-088>090-092>094-100000-
SOUTH-CENTRAL ILLINOIS

CITY           SKY/WX    TMP DP  RH WIND       PRES   REMARKS
CARBONDALE     MOSUNNY   85  61  44 VRB6      29.97F HX  85
CAIRO*         SUNNY     87  60  40 NW3       29.97F HX  87
MARION         MOSUNNY   84  61  45 W12       29.98F HX  84
MT. VERNON     MOSUNNY   82  61  47 NW3       29.98F HX  83
CENTRALIA*     SUNNY     85  59  40 NW10      29.98F HX  85
SALEM*         SUNNY     84  61  45 NW8       29.98F HX  85
METROPOLIS*    SUNNY     84  56  37 W5        29.96F HX  83
$$

ILZ067-068-072-073-078-083-087-091-100000-
SOUTHEAST ILLINOIS

CITY           SKY/WX    TMP DP  RH WIND       PRES   REMARKS
FLORA*         SUNNY     79  61  52 NW6       29.98F HX  80
HARRISBURG*    SUNNY     83  62  49 NW6       29.98F HX  83
ROBINSON*      SUNNY     83  63  50 N7G16     29.97F HX  83
CARMI*         SUNNY     84  64  50 W9        29.96F HX  86
$$

ABBREVIATIONS USED IN REMARKS
   TC - TEMPERATURE IN CELSIUS
  WCI - WIND CHILL INDEX
   HX - HEAT INDEX
  VSB - VISIBILITY
$$




USA.gov is the U.S. government's official web portal to all federal, state and local government web resources and services.